World > North America > United States > New York

Hourly Wingdale, NY Regional Weather

Feedback E-mail the Weather

Quick WX

Wingdale, NY Weather Maps

°F °C°F °C
Wingdale Weather Map
UTC Time: 7/6/2022, 04:59
Your Time:

Wingdale, NY Regional Weather

Expires:202207060500;;763634
ASUS41 KALY 060410
RWRALY

NEW YORK STATE HOURLY WEATHER ROUNDUP
NATIONAL WEATHER SERVICE ALBANY NY
1200 AM EDT WED JUL 06 2022

NOTE: "FAIR" INDICATES FEW OR NO CLOUDS BELOW 12,000 FEET WITH NO
SIGNIFICANT WEATHER AND/OR NO OBSTRUCTIONS TO VISIBILITY.


NYZ032-033-038>043-046>054-057>066-NYZ062>081-082-084-060500-
EAST

  
CITY           SKY/WX    TMP DP  RH WIND       PRES   REMARKS
ALBANY         CLOUDY    69  67  93 S7        29.75F                  
GLENS FALLS    CLOUDY    67  66  97 S5        29.73F                  
POUGHKEEPSIE   CLOUDY    76  68  76 SW6       29.78F                  
NEWBURGH       CLOUDY    73  68  83 SW8       29.81F                  
MONTGOMERY     CLOUDY    73  68  84 SW13      29.79F                  
WHITE PLAINS   MOCLDY    73  68  84 S5        29.83F                  
ISLIP          CLOUDY    74  70  87 S18G28    29.84F                  
NEW YORK CITY  CLOUDY    75  65  70 SW12      29.82F                  
CENTRAL PARK   MOCLDY    72  68  87 VRB5      29.85F                  
$$


SKY/WX - Weather  TMP - Temperature  DP - Dew Point  RH - Humidity
WIND - Wind Direction/Speed PRES - Barometric Pressure VSB - Visibility
WCI - Wind Chill Index E13G22 Wind - East Wind 13 mph/Gusts of 22 mph

Trending Headlines

Wingdale Radar Loop



Wingdale Quick Facts


National Two Day Weather Forecast


E-mail the Wingdale Weather Forecast

Voice your opinion or tell us about page issues...